LEMUR-2-RDEATON

Last updated on Wed Feb 14 2018 16:20:28 GMT+0000 (Coordinated Universal Time)

1 41995U 17008AZ 18045.17264274 .00001192 00000-0 53282-4 0 9992 2 41995 97.4650 110.5495 0010488 84.3849 275.8583 15.23245781 55368
UTC large
Height (km)
Speed (km/s)
/
Latitude / Longitude
Inclination (degrees)
Orbital Period (minutes)
Azimuth
Elevation
Range (km)
Doppler Factor

Next 0 passes for location: London (51.5072 / 0.1276)

Sorry there are no passes over London.